Location: Pilipovskiye Korichintsy
(49.1833°N, 27.4667°E)
Time: 23:22:34
(UTC+00:00)

Lacrosse 5 - Pass Details

Date: 27 October 2020
Orbit: 714 x 725 km, 57.0° (Epoch: 30 November)

Event Time Altitude Azimuth Distance (km) Brightness Sun altitude
Rises 16:34:58 0° 287° (WNW) 3,118 6.6 -16.5°
Reaches altitude 10° 16:37:33 10° 297° (WNW) 2,198 5.3 -17.0°
Maximum altitude 16:42:08 34° 2° (N) 1,181 2.9 -17.7°
Enters shadow 16:44:21 23° 47° (NE) 1,483 3.1 -18.1°
